Flag for Germany Weather past 2 weeks in Lüneburg, Lower Saxony, Germany

Now
81 °F

Passing clouds.


Feels Like: 85 °F
Forecast: 56 / 69 °F
Wind: 5 mph from East

Location: Fassberg

Current Time: Aug 31, 2015 at 8:39:23 PM

Latest Report: Aug 31, 2015 at 7:20 PM


Visibility: N/A

Pressure: 29.71 "Hg

Humidity: 74%

Dew point: 72 °F

Location of LüneburgLocation

Historic Weather in Lüneburg — Graph

°F

Lüneburg temperature yesterday

Maximum temperature yesterday: 77 °F (at 4:20 PM)
Minimum temperature yesterday: 55 °F (at 12:20 AM)
Average temperature yesterday: 64 °F

Past Weeks' High & Low Weather Summary

 TemperatureHumidityPressure
High84 °F (Aug 31, 3:20 PM)100% (Aug 16, 10:20 PM)30.30 "Hg (Aug 16, 10:20 PM)
Low45 °F (Aug 29, 5:20 AM)34% (Aug 22, 5:20 PM)29.62 "Hg (Aug 24, 6:20 PM)
Average63 °F81%29.99 "Hg
* Reported Aug 16 7:20 PM — Aug 31 7:20 PM, Lüneburg, Weather by CustomWeather, © 2015

Note: Actual official high and low records may vary slightly from our data, if they occured in-between our weather recording intervals... More about our weather records

Advertising

Lüneburg weather history for previous 24 hours

 ConditionsComfort  
Time TempWeatherWind HumidityBarometerVisibility
7:20 PM
Mon, Aug 31
81 °FPassing clouds.5 mph74%29.71 "HgN/A
6:20 PM84 °FScattered clouds.7 mph62%29.74 "HgN/A
5:20 PM84 °FScattered clouds.10 mph62%29.77 "HgN/A
4:20 PM84 °FScattered clouds.12 mph58%29.80 "HgN/A
3:20 PM84 °FScattered clouds.12 mph62%29.83 "HgN/A
2:20 PM82 °FPartly sunny.10 mph58%29.86 "HgN/A
1:20 PM81 °FPartly sunny.12 mph62%29.89 "HgN/A
12:20 PM79 °FScattered clouds.8 mph70%29.92 "HgN/A
11:20 AM77 °FBroken clouds.5 mph74%29.92 "HgN/A
10:20 AM73 °FPartly sunny.8 mph78%29.95 "HgN/A
9:20 AM70 °FPartly sunny.1 mph83%29.95 "HgN/A
8:20 AM64 °FPartly sunny.2 mph94%29.95 "Hg5 mi
7:20 AM63 °FPartly cloudy.No wind94%29.95 "Hg4 mi
6:20 AM63 °FFog.2 mph94%29.95 "Hg3 mi
5:20 AM63 °FFog.2 mph100%29.95 "Hg3 mi
4:20 AM64 °FFog.3 mph94%29.98 "Hg3 mi
3:20 AM63 °FFog.No wind100%29.98 "Hg3 mi
2:20 AM64 °FFog.No wind94%29.98 "Hg4 mi
1:20 AM64 °FFog.2 mph100%29.98 "Hg4 mi
12:20 AM64 °FFog.3 mph100%29.98 "Hg5 mi
11:20 PM
Sun, Aug 30
66 °FPassing clouds.5 mph94%30.01 "HgN/A
10:20 PM68 °FPartly cloudy.6 mph94%30.01 "HgN/A
9:20 PM68 °FPartly cloudy.6 mph94%30.01 "HgN/A
8:20 PM70 °FBroken clouds.7 mph94%30.01 "HgN/A
Weather by CustomWeather, © 2015

See weather overviewHow to use our weather pages